Terminal Aerodrome Forecast
Issued by NWS Boston, MA

Home | Current Version | Previous Version | Text Only | Print | Product List | Glossary On
Versions: 1 2 3 4 5 6 7 8 9 10 11 12 13 14 15 16 17 18 19 20 21 22 23 24 25 26 27 28 29 30 31 32 33 34 35 36 37 38 39 40 41 42 43 44
000
FTUS41 KBOX 222321
TAFPVD
TAF
KPVD 222321Z 2300/2324 06005KT P6SM OVC015
     FM230600 08006KT 6SM -RA OVC015
     FM231100 07007KT 3SM -RA BR OVC015
     FM231700 07009KT 2SM -RA BR OVC010
     FM232000 07008KT 2SM BR OVC010=

USA.gov is the U.S. government's official web portal to all federal, state and local government web resources and services.